This is the latest recevied weather packets stored in our database for station/object KA1AL. If no packets are shown the sender has not sent any weather packets the latest 10 day(s).
| Time | Temp. | Humidity | Pressure | Rain* | Wind** | Luminosity | Snow |
|---|---|---|---|---|---|---|---|
| 1777649642 | 10° C | 68% | 1006.1 hPa | 0 mm | - | 730 W/m² | - |
| 1777649337 | 9.44° C | 69% | 1005.7 hPa | 0 mm | - | 708 W/m² | - |
| 1777649035 | 8.89° C | 71% | 1006.1 hPa | 0 mm | - | 705 W/m² | - |
| 1777648733 | 9.44° C | 73% | 1006.1 hPa | 0 mm | - | 707 W/m² | - |
| 1777648429 | 9.44° C | 71% | 1006 hPa | 0 mm | - | 718 W/m² | - |
| 1777648125 | 9.44° C | 72% | 1005.9 hPa | 0 mm | - | 716 W/m² | - |
| 1777647821 | 9.44° C | 72% | 1006.2 hPa | 0 mm | - | 711 W/m² | - |
| 1777647518 | 9.44° C | 77% | 1006 hPa | 0 mm | - | 719 W/m² | - |
| 1777647215 | 8.89° C | 75% | 1006.1 hPa | 0 mm | - | 722 W/m² | - |
| 1777646912 | 8.89° C | 76% | 1006.2 hPa | 0 mm | - | 727 W/m² | - |
| 1777646607 | 8.33° C | 79% | 1006.1 hPa | 0 mm | - | 720 W/m² | - |
| 1777646304 | 8.33° C | 79% | 1006 hPa | 0 mm | - | 723 W/m² | - |
| 1777646001 | 8.89° C | 77% | 1005.8 hPa | 0 mm | - | 717 W/m² | - |
| 1777645698 | 8.33° C | 79% | 1006.2 hPa | 0 mm | - | 717 W/m² | - |
| 1777645394 | 7.78° C | 82% | 1005.9 hPa | 0 mm | - | 708 W/m² | - |
| 1777645090 | 8.33° C | 82% | 1006 hPa | 0 mm | - | 704 W/m² | - |
| 1777644786 | 8.33° C | 82% | 1006.1 hPa | 0 mm | - | 698 W/m² | - |
| 1777644484 | 7.78° C | 84% | 1006.1 hPa | 0 mm | - | 688 W/m² | - |
| 1777644180 | 7.78° C | 82% | 1005.9 hPa | 0 mm | - | 676 W/m² | - |
| 1777643877 | 7.22° C | 85% | 1006 hPa | 0 mm | - | 661 W/m² | - |
| 1777643575 | 7.22° C | 84% | 1005.8 hPa | 0 mm | - | 661 W/m² | - |
| 1777643271 | 6.67° C | 88% | 1005.9 hPa | 0 mm | - | 638 W/m² | - |
| 1777642968 | 6.67° C | 87% | 1005.9 hPa | 0 mm | - | 644 W/m² | - |
| 1777642664 | 6.67° C | 85% | 1005.8 hPa | 0 mm | - | 637 W/m² | - |
| 1777642361 | 6.11° C | 88% | 1005.7 hPa | 0 mm | - | 607 W/m² | - |
* Rain latest hour (hover to see other rain measurements)
** Current wind speed in m/s (hover to see current wind gust speed)